contact:dominique.lefevre@mio.osupytheas.fr, maurice.libes@osupytheas.fr, didier.mallarino@osupytheas.fr
Project:EMSO http://www.emso-fr.org/EMSO-France
Depth: 2436.0 m
Title:EMSO Ligure Ouest : Data MII capteur CSTAR
DateTime,Latitude,Longitude,Instrument_Serial,Reference_Counts,Signal_Counts,Corrected_Signal_raw_counts,Calculated_Beam_c_inverse_meters,Internal_thermistor_counts
DateTime,Latitude,Longitude,Instrument_Serial,Reference_Counts,Signal_Counts,Corrected_Signal_raw_counts,Calculated_Beam_c_inverse_meters,Internal_thermistor_counts
2021-04-05T00:01:11,42.805,6.029,CST-1368DR,5586,7810,15025,0.154,551
2021-04-05T00:04:13,42.805,6.029,CST-1368DR,5586,7808,15022,0.155,551
2021-04-05T00:07:14,42.805,6.029,CST-1368DR,5586,7808,15023,0.155,551
2021-04-05T00:10:16,42.805,6.029,CST-1368DR,5586,7809,15024,0.155,551
2021-04-05T00:13:17,42.805,6.029,CST-1368DR,5586,7810,15025,0.154,551
2021-04-05T00:16:19,42.805,6.029,CST-1368DR,5586,7810,15026,0.154,551
2021-04-05T00:19:21,42.805,6.029,CST-1368DR,5586,7810,15025,0.154,551
2021-04-05T00:22:22,42.805,6.029,CST-1368DR,5586,7810,15026,0.154,551
2021-04-05T00:25:24,42.805,6.029,CST-1368DR,5586,7810,15026,0.154,551
2021-04-05T00:28:25,42.805,6.029,CST-1368DR,5586,7809,15024,0.155,551
2021-04-05T00:31:27,42.805,6.029,CST-1368DR,5586,7808,15023,0.155,551
2021-04-05T00:34:29,42.805,6.029,CST-1368DR,5586,7810,15026,0.154,551
2021-04-05T00:37:30,42.805,6.029,CST-1368DR,5586,7808,15023,0.155,551
2021-04-05T00:40:32,42.805,6.029,CST-1368DR,5586,7809,15023,0.155,551
2021-04-05T00:43:33,42.805,6.029,CST-1368DR,5586,7809,15025,0.154,551
2021-04-05T00:46:35,42.805,6.029,CST-1368DR,5586,7806,15017,0.156,551
2021-04-05T00:49:36,42.805,6.029,CST-1368DR,5586,7808,15023,0.155,551
2021-04-05T00:52:38,42.805,6.029,CST-1368DR,5586,7808,15022,0.155,551
2021-04-05T00:55:40,42.805,6.029,CST-1368DR,5586,7809,15023,0.155,551
2021-04-05T00:58:41,42.805,6.029,CST-1368DR,5586,7809,15025,0.154,551
2021-04-05T01:01:43,42.805,6.029,CST-1368DR,5585,7808,15024,0.155,551
2021-04-05T01:04:44,42.805,6.029,CST-1368DR,5586,7808,15021,0.155,551
2021-04-05T01:07:46,42.805,6.029,CST-1368DR,5585,7807,15023,0.155,551
2021-04-05T01:10:47,42.805,6.029,CST-1368DR,5586,7810,15025,0.154,551
2021-04-05T01:13:49,42.805,6.029,CST-1368DR,5585,7804,15017,0.156,551
2021-04-05T01:16:51,42.805,6.029,CST-1368DR,5585,7808,15025,0.154,551
2021-04-05T01:19:52,42.805,6.029,CST-1368DR,5585,7808,15025,0.154,550
2021-04-05T01:22:54,42.805,6.029,CST-1368DR,5585,7808,15024,0.155,551
2021-04-05T01:25:55,42.805,6.029,CST-1368DR,5585,7808,15024,0.155,551
2021-04-05T01:28:57,42.805,6.029,CST-1368DR,5585,7804,15018,0.156,551
2021-04-05T01:31:58,42.805,6.029,CST-1368DR,5585,7807,15022,0.155,551
2021-04-05T01:35:00,42.805,6.029,CST-1368DR,5585,7808,15025,0.154,551
2021-04-05T01:38:02,42.805,6.029,CST-1368DR,5585,7808,15024,0.155,550
2021-04-05T01:41:03,42.805,6.029,CST-1368DR,5585,7808,15025,0.154,551
2021-04-05T01:44:05,42.805,6.029,CST-1368DR,5585,7807,15023,0.155,551
2021-04-05T01:47:06,42.805,6.029,CST-1368DR,5585,7808,15024,0.155,551
2021-04-05T01:50:08,42.805,6.029,CST-1368DR,5585,7808,15025,0.154,551
2021-04-05T01:53:10,42.805,6.029,CST-1368DR,5585,7808,15025,0.154,551
2021-04-05T01:56:11,42.805,6.029,CST-1368DR,5585,7807,15022,0.155,551
2021-04-05T01:59:13,42.805,6.029,CST-1368DR,5585,7808,15024,0.155,551
2021-04-05T02:02:14,42.805,6.029,CST-1368DR,5585,7808,15025,0.154,551
2021-04-05T02:05:16,42.805,6.029,CST-1368DR,5585,7808,15024,0.155,551
2021-04-05T02:08:17,42.805,6.029,CST-1368DR,5585,7809,15026,0.154,551
2021-04-05T02:11:19,42.805,6.029,CST-1368DR,5585,7807,15023,0.155,551
2021-04-05T02:14:21,42.805,6.029,CST-1368DR,5585,7808,15025,0.154,551
2021-04-05T02:17:22,42.805,6.029,CST-1368DR,5585,7808,15024,0.155,551
2021-04-05T02:20:24,42.805,6.029,CST-1368DR,5585,7808,15025,0.154,551
2021-04-05T02:23:25,42.805,6.029,CST-1368DR,5585,7808,15024,0.155,551
2021-04-05T02:26:27,42.805,6.029,CST-1368DR,5585,7808,15024,0.155,551
2021-04-05T02:29:29,42.805,6.029,CST-1368DR,5585,7807,15022,0.155,551
2021-04-05T02:32:30,42.805,6.029,CST-1368DR,5585,7808,15025,0.154,551
2021-04-05T02:35:32,42.805,6.029,CST-1368DR,5585,7807,15023,0.155,551
2021-04-05T02:38:33,42.805,6.029,CST-1368DR,5585,7808,15024,0.155,551
2021-04-05T02:41:35,42.805,6.029,CST-1368DR,5585,7807,15022,0.155,551
2021-04-05T02:44:36,42.805,6.029,CST-1368DR,5585,7807,15023,0.155,551
2021-04-05T02:47:38,42.805,6.029,CST-1368DR,5585,7805,15019,0.156,551
2021-04-05T02:50:40,42.805,6.029,CST-1368DR,5585,7804,15018,0.156,551
2021-04-05T02:53:41,42.805,6.029,CST-1368DR,5585,7807,15023,0.155,551
2021-04-05T02:56:43,42.805,6.029,CST-1368DR,5585,7807,15023,0.155,551
2021-04-05T02:59:44,42.805,6.029,CST-1368DR,5584,7807,15024,0.155,551
2021-04-05T03:02:46,42.805,6.029,CST-1368DR,5584,7805,15021,0.155,551
2021-04-05T03:05:47,42.805,6.029,CST-1368DR,5585,7807,15022,0.155,551
2021-04-05T03:08:49,42.805,6.029,CST-1368DR,5584,7801,15014,0.157,551
2021-04-05T03:11:51,42.805,6.029,CST-1368DR,5584,7808,15027,0.154,551
2021-04-05T03:14:52,42.805,6.029,CST-1368DR,5584,7803,15018,0.156,551
2021-04-05T03:17:54,42.805,6.029,CST-1368DR,5584,7805,15021,0.155,551
2021-04-05T03:20:55,42.805,6.029,CST-1368DR,5584,7808,15027,0.154,551
2021-04-05T03:23:57,42.805,6.029,CST-1368DR,5584,7806,15024,0.155,551
2021-04-05T03:26:59,42.805,6.029,CST-1368DR,5584,7806,15023,0.155,550
2021-04-05T03:30:00,42.805,6.029,CST-1368DR,5584,7806,15024,0.155,551
2021-04-05T03:33:02,42.805,6.029,CST-1368DR,5584,7807,15025,0.154,551
2021-04-05T03:36:03,42.805,6.029,CST-1368DR,5584,7807,15024,0.155,551
2021-04-05T03:39:05,42.805,6.029,CST-1368DR,5584,7805,15021,0.155,551
2021-04-05T03:42:06,42.805,6.029,CST-1368DR,5584,7806,15024,0.155,551
2021-04-05T03:45:08,42.805,6.029,CST-1368DR,5584,7807,15024,0.155,551
2021-04-05T03:48:10,42.805,6.029,CST-1368DR,5584,7807,15025,0.154,551
2021-04-05T03:51:11,42.805,6.029,CST-1368DR,5584,7807,15025,0.154,551
2021-04-05T03:54:13,42.805,6.029,CST-1368DR,5584,7807,15025,0.154,551
2021-04-05T03:57:14,42.805,6.029,CST-1368DR,5584,7805,15021,0.155,551
2021-04-05T04:00:16,42.805,6.029,CST-1368DR,5584,7802,15016,0.157,551
2021-04-05T04:03:17,42.805,6.029,CST-1368DR,5584,7806,15024,0.155,550
2021-04-05T04:06:19,42.805,6.029,CST-1368DR,5584,7806,15024,0.155,551
2021-04-05T04:09:21,42.805,6.029,CST-1368DR,5584,7804,15020,0.156,551
2021-04-05T04:12:22,42.805,6.029,CST-1368DR,5584,7805,15022,0.155,551
2021-04-05T04:15:24,42.805,6.029,CST-1368DR,5584,7805,15021,0.155,551
2021-04-05T04:18:25,42.805,6.029,CST-1368DR,5584,7804,15020,0.156,551
2021-04-05T04:21:27,42.805,6.029,CST-1368DR,5584,7806,15023,0.155,550
2021-04-05T04:24:29,42.805,6.029,CST-1368DR,5584,7806,15024,0.155,551
2021-04-05T04:27:30,42.805,6.029,CST-1368DR,5584,7806,15024,0.155,551
2021-04-05T04:30:32,42.805,6.029,CST-1368DR,5584,7806,15023,0.155,551
2021-04-05T04:33:33,42.805,6.029,CST-1368DR,5584,7805,15022,0.155,551
2021-04-05T04:36:35,42.805,6.029,CST-1368DR,5584,7806,15023,0.155,551
2021-04-05T04:39:36,42.805,6.029,CST-1368DR,5584,7805,15021,0.155,551
2021-04-05T04:42:38,42.805,6.029,CST-1368DR,5584,7805,15022,0.155,551
2021-04-05T04:45:40,42.805,6.029,CST-1368DR,5584,7806,15023,0.155,551
2021-04-05T04:48:41,42.805,6.029,CST-1368DR,5584,7803,15018,0.156,551
2021-04-05T04:51:43,42.805,6.029,CST-1368DR,5584,7806,15023,0.155,551
2021-04-05T04:54:44,42.805,6.029,CST-1368DR,5584,7804,15020,0.156,551
2021-04-05T04:57:46,42.805,6.029,CST-1368DR,5583,7805,15025,0.154,551
2021-04-05T05:00:48,42.805,6.029,CST-1368DR,5583,7805,15024,0.155,551
2021-04-05T05:03:49,42.805,6.029,CST-1368DR,5583,7805,15024,0.155,551
2021-04-05T05:06:51,42.805,6.029,CST-1368DR,5583,7799,15012,0.158,551
2021-04-05T05:09:52,42.805,6.029,CST-1368DR,5583,7805,15024,0.155,551
2021-04-05T05:12:54,42.805,6.029,CST-1368DR,5583,7804,15023,0.155,551
2021-04-05T05:15:55,42.805,6.029,CST-1368DR,5583,7805,15024,0.155,551
2021-04-05T05:18:57,42.805,6.029,CST-1368DR,5583,7803,15020,0.156,551
2021-04-05T05:21:59,42.805,6.029,CST-1368DR,5583,7804,15022,0.155,551
2021-04-05T05:25:00,42.805,6.029,CST-1368DR,5583,7805,15025,0.154,551
2021-04-05T05:28:02,42.805,6.029,CST-1368DR,5583,7805,15024,0.155,551
2021-04-05T05:31:03,42.805,6.029,CST-1368DR,5583,7804,15023,0.155,551
2021-04-05T05:34:05,42.805,6.029,CST-1368DR,5583,7805,15025,0.154,551
2021-04-05T05:37:07,42.805,6.029,CST-1368DR,5583,7802,15018,0.156,551
2021-04-05T05:40:08,42.805,6.029,CST-1368DR,5583,7806,15027,0.154,551
2021-04-05T05:43:10,42.805,6.029,CST-1368DR,5583,7805,15024,0.155,551
2021-04-05T05:46:11,42.805,6.029,CST-1368DR,5583,7806,15025,0.154,551
2021-04-05T05:49:13,42.805,6.029,CST-1368DR,5583,7805,15024,0.155,551
2021-04-05T05:52:14,42.805,6.029,CST-1368DR,5583,7803,15021,0.155,551
2021-04-05T05:55:16,42.805,6.029,CST-1368DR,5583,7805,15025,0.154,551
2021-04-05T05:58:18,42.805,6.029,CST-1368DR,5583,7805,15024,0.155,551
2021-04-05T06:01:19,42.805,6.029,CST-1368DR,5583,7804,15022,0.155,551
2021-04-05T06:04:21,42.805,6.029,CST-1368DR,5583,7805,15024,0.155,551
2021-04-05T06:07:22,42.805,6.029,CST-1368DR,5583,7802,15018,0.156,551
2021-04-05T06:10:24,42.805,6.029,CST-1368DR,5583,7805,15023,0.155,551
2021-04-05T06:13:25,42.805,6.029,CST-1368DR,5583,7803,15021,0.155,551
2021-04-05T06:16:27,42.805,6.029,CST-1368DR,5583,7804,15022,0.155,551
2021-04-05T06:19:29,42.805,6.029,CST-1368DR,5583,7804,15022,0.155,551
2021-04-05T06:22:30,42.805,6.029,CST-1368DR,5583,7803,15021,0.155,551
2021-04-05T06:25:32,42.805,6.029,CST-1368DR,5583,7803,15020,0.156,551
2021-04-05T06:28:33,42.805,6.029,CST-1368DR,5583,7805,15024,0.155,551
2021-04-05T06:31:35,42.805,6.029,CST-1368DR,5583,7805,15024,0.155,551
2021-04-05T06:34:37,42.805,6.029,CST-1368DR,5583,7804,15023,0.155,550
2021-04-05T06:37:38,42.805,6.029,CST-1368DR,5583,7805,15025,0.154,551
2021-04-05T06:40:40,42.805,6.029,CST-1368DR,5583,7804,15021,0.155,551
2021-04-05T06:43:41,42.805,6.029,CST-1368DR,5583,7803,15021,0.155,551
2021-04-05T06:46:43,42.805,6.029,CST-1368DR,5583,7805,15024,0.155,551
2021-04-05T06:49:44,42.805,6.029,CST-1368DR,5583,7805,15024,0.155,551
2021-04-05T06:52:46,42.805,6.029,CST-1368DR,5583,7805,15024,0.155,551
2021-04-05T06:55:48,42.805,6.029,CST-1368DR,5582,7804,15025,0.154,551
2021-04-05T06:58:49,42.805,6.029,CST-1368DR,5582,7803,15022,0.155,551
2021-04-05T07:01:51,42.805,6.029,CST-1368DR,5582,7804,15024,0.155,551
2021-04-05T07:04:52,42.805,6.029,CST-1368DR,5582,7803,15022,0.155,551
2021-04-05T07:07:54,42.805,6.029,CST-1368DR,5582,7801,15019,0.156,551
2021-04-05T07:10:55,42.805,6.029,CST-1368DR,5582,7805,15027,0.154,551
2021-04-05T07:13:57,42.805,6.029,CST-1368DR,5582,7803,15023,0.155,551
2021-04-05T07:16:59,42.805,6.029,CST-1368DR,5582,7800,15018,0.156,551
2021-04-05T07:20:00,42.805,6.029,CST-1368DR,5582,7805,15026,0.154,551
2021-04-05T07:23:02,42.805,6.029,CST-1368DR,5582,7803,15023,0.155,551
2021-04-05T07:26:03,42.805,6.029,CST-1368DR,5582,7804,15024,0.155,551
2021-04-05T07:29:05,42.805,6.029,CST-1368DR,5582,7804,15024,0.155,551
2021-04-05T07:32:07,42.805,6.029,CST-1368DR,5582,7804,15024,0.155,551
2021-04-05T07:35:08,42.805,6.029,CST-1368DR,5582,7803,15023,0.155,551
2021-04-05T07:38:10,42.805,6.029,CST-1368DR,5582,7797,15010,0.158,551
2021-04-05T07:41:11,42.805,6.029,CST-1368DR,5582,7801,15019,0.156,551
2021-04-05T07:44:13,42.805,6.029,CST-1368DR,5582,7803,15023,0.155,551
2021-04-05T07:47:14,42.805,6.029,CST-1368DR,5582,7801,15019,0.156,551
2021-04-05T07:50:16,42.805,6.029,CST-1368DR,5582,7804,15024,0.155,551
2021-04-05T07:53:18,42.805,6.029,CST-1368DR,5582,7803,15022,0.155,551
2021-04-05T07:56:19,42.805,6.029,CST-1368DR,5582,7800,15017,0.156,551
2021-04-05T07:59:21,42.805,6.029,CST-1368DR,5582,7803,15022,0.155,551
2021-04-05T08:02:22,42.805,6.029,CST-1368DR,5582,7805,15026,0.154,551
2021-04-05T08:05:24,42.805,6.029,CST-1368DR,5582,7804,15024,0.155,551
2021-04-05T08:08:25,42.805,6.029,CST-1368DR,5582,7804,15024,0.155,551
2021-04-05T08:11:27,42.805,6.029,CST-1368DR,5582,7804,15024,0.155,551
2021-04-05T08:14:29,42.805,6.029,CST-1368DR,5582,7801,15019,0.156,551
2021-04-05T08:17:30,42.805,6.029,CST-1368DR,5582,7802,15021,0.155,551
2021-04-05T08:20:32,42.805,6.029,CST-1368DR,5582,7801,15019,0.156,551
2021-04-05T08:23:33,42.805,6.029,CST-1368DR,5582,7803,15022,0.155,551
2021-04-05T08:26:35,42.805,6.029,CST-1368DR,5582,7802,15020,0.156,551
2021-04-05T08:29:37,42.805,6.029,CST-1368DR,5582,7804,15024,0.155,551
2021-04-05T08:32:38,42.805,6.029,CST-1368DR,5582,7801,15018,0.156,551
2021-04-05T08:35:40,42.805,6.029,CST-1368DR,5582,7802,15020,0.156,551
2021-04-05T08:38:41,42.805,6.029,CST-1368DR,5581,7803,15025,0.154,551
2021-04-05T08:41:43,42.805,6.029,CST-1368DR,5581,7804,15026,0.154,551
2021-04-05T08:44:44,42.805,6.029,CST-1368DR,5581,7801,15022,0.155,550
2021-04-05T08:47:46,42.805,6.029,CST-1368DR,5581,7804,15027,0.154,551
2021-04-05T08:50:48,42.805,6.029,CST-1368DR,5581,7802,15023,0.155,551
2021-04-05T08:53:49,42.805,6.029,CST-1368DR,5581,7803,15025,0.154,551
2021-04-05T08:56:51,42.805,6.029,CST-1368DR,5581,7803,15026,0.154,551
2021-04-05T08:59:52,42.805,6.029,CST-1368DR,5581,7803,15025,0.154,551
2021-04-05T09:02:54,42.805,6.029,CST-1368DR,5581,7803,15025,0.154,551
2021-04-05T09:05:56,42.805,6.029,CST-1368DR,5581,7803,15026,0.154,551
2021-04-05T09:08:57,42.805,6.029,CST-1368DR,5581,7800,15019,0.156,551
2021-04-05T09:11:59,42.805,6.029,CST-1368DR,5581,7799,15018,0.156,551
2021-04-05T09:15:00,42.805,6.029,CST-1368DR,5581,7802,15023,0.155,551
2021-04-05T09:18:02,42.805,6.029,CST-1368DR,5581,7803,15024,0.155,551
2021-04-05T09:21:03,42.805,6.029,CST-1368DR,5581,7798,15016,0.157,551
2021-04-05T09:24:05,42.805,6.029,CST-1368DR,5581,7803,15025,0.154,551
2021-04-05T09:27:07,42.805,6.029,CST-1368DR,5581,7802,15022,0.155,551
2021-04-05T09:30:08,42.805,6.029,CST-1368DR,5581,7803,15026,0.154,551
2021-04-05T09:33:10,42.805,6.029,CST-1368DR,5581,7804,15027,0.154,551
2021-04-05T09:36:11,42.805,6.029,CST-1368DR,5581,7804,15027,0.154,551
2021-04-05T09:39:13,42.805,6.029,CST-1368DR,5581,7802,15023,0.155,551
2021-04-05T09:42:14,42.805,6.029,CST-1368DR,5581,7802,15023,0.155,551
2021-04-05T09:45:16,42.805,6.029,CST-1368DR,5581,7803,15025,0.154,551
2021-04-05T09:48:18,42.805,6.029,CST-1368DR,5581,7803,15025,0.154,551
2021-04-05T09:51:19,42.805,6.029,CST-1368DR,5581,7804,15026,0.154,551
2021-04-05T09:54:21,42.805,6.029,CST-1368DR,5581,7803,15026,0.154,551
2021-04-05T09:57:22,42.805,6.029,CST-1368DR,5581,7804,15026,0.154,551
2021-04-05T10:00:24,42.805,6.029,CST-1368DR,5581,7803,15025,0.154,551
2021-04-05T10:03:26,42.805,6.029,CST-1368DR,5581,7800,15020,0.156,550
2021-04-05T10:06:27,42.805,6.029,CST-1368DR,5581,7800,15020,0.156,551
2021-04-05T10:09:29,42.805,6.029,CST-1368DR,5581,7796,15012,0.158,551
2021-04-05T10:12:30,42.805,6.029,CST-1368DR,5581,7803,15025,0.154,551
2021-04-05T10:15:32,42.805,6.029,CST-1368DR,5581,7791,15002,0.160,551
2021-04-05T10:18:33,42.805,6.029,CST-1368DR,5581,7801,15021,0.155,551
2021-04-05T10:21:35,42.805,6.029,CST-1368DR,5581,7802,15023,0.155,551
2021-04-05T10:24:37,42.805,6.029,CST-1368DR,5581,7803,15024,0.155,551
2021-04-05T10:27:38,42.805,6.029,CST-1368DR,5581,7801,15022,0.155,551
2021-04-05T10:30:40,42.805,6.029,CST-1368DR,5580,7802,15026,0.154,551
2021-04-05T10:33:41,42.805,6.029,CST-1368DR,5581,7803,15025,0.154,551
2021-04-05T10:36:43,42.805,6.029,CST-1368DR,5580,7802,15026,0.154,551
2021-04-05T10:39:45,42.805,6.029,CST-1368DR,5580,7802,15026,0.154,551
2021-04-05T10:42:46,42.805,6.029,CST-1368DR,5580,7802,15026,0.154,551
2021-04-05T10:45:48,42.805,6.029,CST-1368DR,5580,7803,15027,0.154,551
2021-04-05T10:48:49,42.805,6.029,CST-1368DR,5580,7802,15026,0.154,551
2021-04-05T10:51:51,42.805,6.029,CST-1368DR,5580,7802,15026,0.154,551
2021-04-05T10:54:52,42.805,6.029,CST-1368DR,5580,7802,15025,0.154,551
2021-04-05T10:57:54,42.805,6.029,CST-1368DR,5580,7801,15024,0.155,551
2021-04-05T11:00:56,42.805,6.029,CST-1368DR,5580,7794,15011,0.158,551
2021-04-05T11:03:57,42.805,6.029,CST-1368DR,5580,7801,15024,0.155,551
2021-04-05T11:06:59,42.805,6.029,CST-1368DR,5580,7800,15022,0.155,551
2021-04-05T11:10:00,42.805,6.029,CST-1368DR,5580,7802,15025,0.154,551
2021-04-05T11:13:02,42.805,6.029,CST-1368DR,5580,7802,15026,0.154,551
2021-04-05T11:16:03,42.805,6.029,CST-1368DR,5580,7802,15025,0.154,551
2021-04-05T11:19:05,42.805,6.029,CST-1368DR,5580,7801,15025,0.154,551
2021-04-05T11:22:07,42.805,6.029,CST-1368DR,5580,7802,15025,0.154,551
2021-04-05T11:25:08,42.805,6.029,CST-1368DR,5580,7802,15026,0.154,551
2021-04-05T11:28:10,42.805,6.029,CST-1368DR,5580,7801,15024,0.155,551
2021-04-05T11:31:11,42.805,6.029,CST-1368DR,5580,7801,15025,0.154,551
2021-04-05T11:34:13,42.805,6.029,CST-1368DR,5580,7802,15025,0.154,551
2021-04-05T11:37:15,42.805,6.029,CST-1368DR,5580,7801,15025,0.154,551
2021-04-05T11:40:16,42.805,6.029,CST-1368DR,5580,7801,15025,0.154,551
2021-04-05T11:43:18,42.805,6.029,CST-1368DR,5580,7800,15022,0.155,551
2021-04-05T11:46:19,42.805,6.029,CST-1368DR,5580,7798,15019,0.156,550
2021-04-05T11:49:21,42.805,6.029,CST-1368DR,5580,7801,15024,0.155,551
2021-04-05T11:52:22,42.805,6.029,CST-1368DR,5580,7802,15025,0.154,551
2021-04-05T11:55:24,42.805,6.029,CST-1368DR,5580,7802,15025,0.154,551
2021-04-05T11:58:26,42.805,6.029,CST-1368DR,5580,7802,15025,0.154,551
2021-04-05T12:01:27,42.805,6.029,CST-1368DR,5580,7802,15026,0.154,551
2021-04-05T12:04:29,42.805,6.029,CST-1368DR,5580,7801,15023,0.155,551
2021-04-05T12:07:30,42.805,6.029,CST-1368DR,5580,7800,15022,0.155,551
2021-04-05T12:10:32,42.805,6.029,CST-1368DR,5580,7801,15025,0.154,551
2021-04-05T12:13:33,42.805,6.029,CST-1368DR,5580,7801,15025,0.154,551
2021-04-05T12:16:35,42.805,6.029,CST-1368DR,5580,7801,15023,0.155,551
2021-04-05T12:19:37,42.805,6.029,CST-1368DR,5580,7800,15022,0.155,551
2021-04-05T12:22:38,42.805,6.029,CST-1368DR,5580,7800,15022,0.155,550
2021-04-05T12:25:40,42.805,6.029,CST-1368DR,5580,7801,15024,0.155,551
2021-04-05T12:28:41,42.805,6.029,CST-1368DR,5580,7801,15024,0.155,550
2021-04-05T12:31:43,42.805,6.029,CST-1368DR,5580,7802,15025,0.154,551
2021-04-05T12:34:45,42.805,6.029,CST-1368DR,5580,7799,15020,0.156,551
2021-04-05T12:37:46,42.805,6.029,CST-1368DR,5580,7799,15021,0.155,551
2021-04-05T12:40:48,42.805,6.029,CST-1368DR,5580,7795,15013,0.158,551
2021-04-05T12:43:49,42.805,6.029,CST-1368DR,5579,7800,15024,0.155,551
2021-04-05T12:46:51,42.805,6.029,CST-1368DR,5579,7797,15019,0.156,551
2021-04-05T12:49:52,42.805,6.029,CST-1368DR,5579,7794,15013,0.158,550
2021-04-05T12:52:54,42.805,6.029,CST-1368DR,5579,7794,15013,0.158,551
2021-04-05T12:55:56,42.805,6.029,CST-1368DR,5579,7801,15026,0.154,551
2021-04-05T12:58:57,42.805,6.029,CST-1368DR,5579,7794,15012,0.158,551
2021-04-05T13:01:59,42.805,6.029,CST-1368DR,5579,7790,15005,0.160,551
2021-04-05T13:05:00,42.805,6.029,CST-1368DR,5579,7790,15004,0.160,551
2021-04-05T13:08:02,42.805,6.029,CST-1368DR,5579,7791,15007,0.159,551
2021-04-05T13:11:04,42.805,6.029,CST-1368DR,5579,7790,15006,0.159,551
2021-04-05T13:14:05,42.805,6.029,CST-1368DR,5579,7795,15014,0.157,551
2021-04-05T13:17:07,42.805,6.029,CST-1368DR,5579,7789,15003,0.160,551
2021-04-05T13:20:08,42.805,6.029,CST-1368DR,5579,7799,15022,0.155,551
2021-04-05T13:23:10,42.805,6.029,CST-1368DR,5579,7797,15018,0.156,551
2021-04-05T13:26:11,42.805,6.029,CST-1368DR,5579,7797,15019,0.156,551
2021-04-05T13:29:13,42.805,6.029,CST-1368DR,5579,7800,15025,0.154,551
2021-04-05T13:32:15,42.805,6.029,CST-1368DR,5579,7798,15020,0.156,551
2021-04-05T13:35:16,42.805,6.029,CST-1368DR,5579,7797,15018,0.156,551
2021-04-05T13:38:18,42.805,6.029,CST-1368DR,5579,7798,15020,0.156,551
2021-04-05T13:41:19,42.805,6.029,CST-1368DR,5579,7793,15010,0.158,551
2021-04-05T13:44:21,42.805,6.029,CST-1368DR,5579,7794,15014,0.157,551
2021-04-05T13:47:22,42.805,6.029,CST-1368DR,5579,7798,15021,0.155,551
2021-04-05T13:50:24,42.805,6.029,CST-1368DR,5579,7792,15008,0.159,551
2021-04-05T13:53:26,42.805,6.029,CST-1368DR,5579,7790,15004,0.160,550
2021-04-05T13:56:27,42.805,6.029,CST-1368DR,5579,7789,15003,0.160,550
2021-04-05T13:59:29,42.805,6.029,CST-1368DR,5579,7793,15012,0.158,551
2021-04-05T14:02:30,42.805,6.029,CST-1368DR,5579,7799,15023,0.155,551
2021-04-05T14:05:32,42.805,6.029,CST-1368DR,5579,7786,14998,0.162,551
2021-04-05T14:08:34,42.805,6.029,CST-1368DR,5579,7791,15007,0.159,551
2021-04-05T14:11:35,42.805,6.029,CST-1368DR,5579,7792,15009,0.159,551
2021-04-05T14:14:37,42.805,6.029,CST-1368DR,5579,7790,15004,0.160,551
2021-04-05T14:17:38,42.805,6.029,CST-1368DR,5579,7795,15014,0.157,551
2021-04-05T14:20:40,42.805,6.029,CST-1368DR,5579,7793,15011,0.158,551
2021-04-05T14:23:41,42.805,6.029,CST-1368DR,5579,7798,15021,0.155,551
2021-04-05T14:26:43,42.805,6.029,CST-1368DR,5579,7787,15000,0.161,551
2021-04-05T14:29:45,42.805,6.029,CST-1368DR,5579,7791,15008,0.159,551
2021-04-05T14:32:46,42.805,6.029,CST-1368DR,5578,7784,14995,0.162,551
2021-04-05T14:35:48,42.805,6.029,CST-1368DR,5579,7790,15006,0.159,551
2021-04-05T14:38:49,42.805,6.029,CST-1368DR,5579,7789,15004,0.160,551
2021-04-05T14:41:51,42.805,6.029,CST-1368DR,5579,7786,14998,0.162,551
2021-04-05T14:44:52,42.805,6.029,CST-1368DR,5579,7792,15009,0.159,551
2021-04-05T14:47:54,42.805,6.029,CST-1368DR,5578,7795,15017,0.156,551
2021-04-05T14:50:56,42.805,6.029,CST-1368DR,5578,7788,15004,0.160,551
2021-04-05T14:53:57,42.805,6.029,CST-1368DR,5578,7785,14999,0.161,551
2021-04-05T14:56:59,42.805,6.029,CST-1368DR,5578,7795,15017,0.156,551
2021-04-05T15:00:00,42.805,6.029,CST-1368DR,5578,7795,15017,0.156,551
2021-04-05T15:03:02,42.805,6.029,CST-1368DR,5579,7793,15011,0.158,551
2021-04-05T15:06:04,42.805,6.029,CST-1368DR,5578,7781,14991,0.163,551
2021-04-05T15:09:05,42.805,6.029,CST-1368DR,5578,7785,14999,0.161,551
2021-04-05T15:12:07,42.805,6.029,CST-1368DR,5578,7780,14989,0.164,550
2021-04-05T15:15:08,42.805,6.029,CST-1368DR,5578,7788,15004,0.160,551
2021-04-05T15:18:10,42.805,6.029,CST-1368DR,5578,7794,15015,0.157,551
2021-04-05T15:21:11,42.805,6.029,CST-1368DR,5578,7783,14994,0.163,551
2021-04-05T15:24:13,42.805,6.029,CST-1368DR,5578,7795,15017,0.156,551
2021-04-05T15:27:15,42.805,6.029,CST-1368DR,5578,7793,15014,0.157,551
2021-04-05T15:30:16,42.805,6.029,CST-1368DR,5578,7793,15014,0.157,550
2021-04-05T15:33:18,42.805,6.029,CST-1368DR,5578,7794,15015,0.157,551
2021-04-05T15:36:19,42.805,6.029,CST-1368DR,5578,7792,15011,0.158,551
2021-04-05T15:39:21,42.805,6.029,CST-1368DR,5578,7798,15022,0.155,551
2021-04-05T15:42:23,42.805,6.029,CST-1368DR,5578,7798,15022,0.155,551
2021-04-05T15:45:24,42.805,6.029,CST-1368DR,5578,7794,15015,0.157,551
2021-04-05T15:48:26,42.805,6.029,CST-1368DR,5578,7797,15022,0.155,551
2021-04-05T15:51:27,42.805,6.029,CST-1368DR,5578,7793,15013,0.158,551
2021-04-05T15:54:29,42.805,6.029,CST-1368DR,5578,7796,15020,0.156,551
2021-04-05T15:57:30,42.805,6.029,CST-1368DR,5578,7798,15022,0.155,551
2021-04-05T16:00:32,42.805,6.029,CST-1368DR,5578,7798,15024,0.155,551
2021-04-05T16:03:34,42.805,6.029,CST-1368DR,5578,7798,15023,0.155,550
2021-04-05T16:06:35,42.805,6.029,CST-1368DR,5578,7792,15011,0.158,551
2021-04-05T16:09:37,42.805,6.029,CST-1368DR,5578,7797,15021,0.155,551
2021-04-05T16:12:38,42.805,6.029,CST-1368DR,5578,7797,15020,0.156,551
2021-04-05T16:15:40,42.805,6.029,CST-1368DR,5578,7798,15024,0.155,551
2021-04-05T16:18:41,42.805,6.029,CST-1368DR,5578,7794,15016,0.157,551
2021-04-05T16:21:43,42.805,6.029,CST-1368DR,5578,7788,15004,0.160,551
2021-04-05T16:24:45,42.805,6.029,CST-1368DR,5578,7793,15013,0.158,551
2021-04-05T16:27:46,42.805,6.029,CST-1368DR,5578,7787,15003,0.160,551
2021-04-05T16:30:48,42.805,6.029,CST-1368DR,5578,7792,15011,0.158,551
2021-04-05T16:33:49,42.805,6.029,CST-1368DR,5578,7787,15003,0.160,551
2021-04-05T16:36:51,42.805,6.029,CST-1368DR,5578,7789,15005,0.160,551
2021-04-05T16:39:53,42.805,6.029,CST-1368DR,5578,7794,15015,0.157,551
2021-04-05T16:42:54,42.805,6.029,CST-1368DR,5578,7795,15017,0.156,551
2021-04-05T16:45:56,42.805,6.029,CST-1368DR,5578,7791,15010,0.158,550
2021-04-05T16:48:57,42.805,6.029,CST-1368DR,5578,7787,15001,0.161,551
2021-04-05T16:51:59,42.805,6.029,CST-1368DR,5578,7788,15003,0.160,551